KE9LZ-9 Weather Reports


Display with metric or nautical units.
time (UTC)temp
F
wind
direction
speed
MPH
gust
MPH
rain 1hr
in
rain 24hr
in
rain mn
in
humidity
%
barometer
mb
20211208161504 14 46 1.0 3.0 0.00 0.00 0.00 77 1014.4
20211208161003 14 310 1.0 6.0 0.00 0.00 0.00 78 1014.0
20211208160003 13 285 1.0 3.0 0.00 0.00 0.00 80 1014.1
20211208155503 13 273 1.0 3.0 0.00 0.00 0.00 81 1014.0
20211208155004 12 302 1.0 3.0 0.00 0.00 0.00 83 1014.2
20211208154504 11 288 2.0 5.0 0.00 0.00 0.00 83 1014.1
20211208154004 10 321 1.0 3.0 0.00 0.00 0.00 86 1014.0
20211208153503 9 285 1.0 3.0 0.00 0.00 0.00 87 1013.9
20211208153004 8 307 0.0 3.0 0.00 0.00 0.00 87 1013.7
20211208152503 7 299 1.0 3.0 0.00 0.00 0.00 87 1013.8
20211208152003 6 314 0.0 1.0 0.00 0.00 0.00 87 1013.5
20211208151503 6 322 0.0 0.0 0.00 0.00 0.00 87 1013.4
20211208151004 5 313 1.0 3.0 0.00 0.00 0.00 87 1013.9
20211208150004 5 303 0.0 2.0 0.00 0.00 0.00 87 1013.6
20211208145503 4 293 1.0 3.0 0.00 0.00 0.00 87 1013.4
20211208145004 4 272 1.0 5.0 0.00 0.00 0.00 87 1013.4
20211208144503 4 284 1.0 2.0 0.00 0.00 0.00 88 1013.2
20211208144004 4 256 1.0 3.0 0.00 0.00 0.00 88 1013.6
20211208143503 3 279 1.0 3.0 0.00 0.00 0.00 89 1013.3
20211208143003 2 276 2.0 5.0 0.00 0.00 0.00 90 1013.5
20211208142504 1 266 2.0 5.0 0.00 0.00 0.00 88 1013.5
20211208142004 0 257 1.0 2.0 0.00 0.00 0.00 86 1013.3
20211208141504 0 263 1.0 2.0 0.00 0.00 0.00 87 1013.0
20211208141004 -1 264 1.0 3.0 0.00 0.00 0.00 88 1013.1
20211208140004 -2 249 1.0 3.0 0.00 0.00 0.00 86 1013.1
20211208135504 -2 272 2.0 3.0 0.00 0.00 0.00 85 1013.1
20211208135004 -2 270 1.0 2.0 0.00 0.00 0.00 86 1013.1
20211208134504 -2 270 1.0 3.0 0.00 0.00 0.00 87 1013.2
20211208134003 -3 273 1.0 3.0 0.00 0.00 0.00 86 1013.0
20211208133503 -3 272 1.0 3.0 0.00 0.00 0.00 86 1012.8
20211208133004 -3 267 1.0 5.0 0.00 0.00 0.00 88 1013.1
20211208132503 -4 285 1.0 3.0 0.00 0.00 0.00 87 1012.8
20211208132004 -5 256 1.0 5.0 0.00 0.00 0.00 86 1013.2
20211208131504 -5 264 1.0 3.0 0.00 0.00 0.00 86 1013.3
20211208131004 -6 288 1.0 3.0 0.00 0.00 0.00 85 1013.1
20211208130003 -6 260 1.0 3.0 0.00 0.00 0.00 84 1013.0
20211208125503 -6 273 0.0 2.0 0.00 0.00 0.00 84 1013.0
20211208125004 -6 266 0.0 1.0 0.00 0.00 0.00 84 1012.9
20211208124503 -6 266 0.0 0.0 0.00 0.00 0.00 83 1012.8
20211208124004 -6 266 0.0 1.0 0.00 0.00 0.00 83 1013.1
20211208123504 -6 266 0.0 1.0 0.00 0.00 0.00 83 1013.1
20211208123004 -6 266 0.0 1.0 0.00 0.00 0.00 83 1012.9
20211208122503 -5 266 0.0 0.0 0.00 0.00 0.00 83 1012.9
20211208122004 -5 266 0.0 1.0 0.00 0.00 0.00 83 1012.7
20211208121503 -5 266 0.0 0.0 0.00 0.00 0.00 84 1012.9
20211208121003 -5 266 0.0 0.0 0.00 0.00 0.00 84 1013.0
20211208120004 -5 266 0.0 0.0 0.00 0.00 0.00 84 1012.9
20211208115504 -5 266 0.0 0.0 0.00 0.00 0.00 84 1013.0
20211208115004 -5 266 0.0 0.0 0.00 0.00 0.00 83 1013.1
20211208114504 -4 266 0.0 1.0 0.00 0.00 0.00 83 1012.7
20211208114004 -4 266 0.0 1.0 0.00 0.00 0.00 83 1012.9
20211208113504 -4 266 0.0 1.0 0.00 0.00 0.00 83 1012.8
20211208113004 -4 266 0.0 0.0 0.00 0.00 0.00 83 1012.9
20211208112503 -3 266 0.0 0.0 0.00 0.00 0.00 83 1012.7
20211208112004 -3 266 0.0 0.0 0.00 0.00 0.00 83 1012.7
20211208111504 -3 266 0.0 0.0 0.00 0.00 0.00 83 1012.9
20211208111003 -2 266 0.0 0.0 0.00 0.00 0.00 83 1012.5
20211208110004 -2 266 0.0 0.0 0.00 0.00 0.00 83 1012.7
20211208105503 -1 266 0.0 0.0 0.00 0.00 0.00 83 1012.7
20211208105003 -1 266 0.0 0.0 0.00 0.00 0.00 83 1012.7
20211208104504 0 266 0.0 0.0 0.00 0.00 0.00 83 1012.6
20211208104004 0 266 0.0 0.0 0.00 0.00 0.00 83 1012.4
20211208103504 0 266 0.0 0.0 0.00 0.00 0.00 83 1012.5
20211208103004 1 266 0.0 0.0 0.00 0.00 0.00 84 1012.5
20211208102503 1 266 0.0 0.0 0.00 0.00 0.00 84 1012.6
20211208102004 1 266 0.0 0.0 0.00 0.00 0.00 84 1012.7
20211208101504 1 266 0.0 0.0 0.00 0.00 0.00 84 1012.4
20211208101003 1 266 0.0 0.0 0.00 0.00 0.00 84 1012.3
20211208100003 1 266 0.0 0.0 0.00 0.00 0.00 84 1012.5
20211208095503 1 266 0.0 0.0 0.00 0.00 0.00 84 1012.6
20211208095004 1 266 0.0 0.0 0.00 0.00 0.00 84 1012.6
20211208094503 1 266 0.0 0.0 0.00 0.00 0.00 84 1012.4
20211208094003 1 266 0.0 0.0 0.00 0.00 0.00 84 1012.5
20211208093503 1 266 0.0 0.0 0.00 0.00 0.00 84 1012.5
20211208093005 1 266 0.0 0.0 0.00 0.00 0.00 84 1012.5
20211208092503 1 266 0.0 0.0 0.00 0.00 0.00 84 1012.3
20211208092004 1 266 0.0 0.0 0.00 0.00 0.00 84 1012.5
20211208091504 1 266 0.0 0.0 0.00 0.00 0.00 84 1012.4
20211208091004 2 266 0.0 0.0 0.00 0.00 0.00 84 1012.6
20211208090004 2 266 0.0 0.0 0.00 0.00 0.00 84 1012.8
20211208085504 2 266 0.0 0.0 0.00 0.00 0.00 84 1012.6
20211208085003 2 266 0.0 0.0 0.00 0.00 0.00 84 1012.8
20211208084504 2 266 0.0 0.0 0.00 0.00 0.00 84 1012.7
20211208084003 3 266 0.0 0.0 0.00 0.00 0.00 84 1012.8
20211208083504 3 266 0.0 0.0 0.00 0.00 0.00 84 1012.9
20211208083004 3 266 0.0 0.0 0.00 0.00 0.00 84 1012.8
20211208082504 3 266 0.0 0.0 0.00 0.00 0.00 84 1012.9
20211208082004 3 266 0.0 0.0 0.00 0.00 0.00 84 1012.9
20211208081506 3 266 0.0 0.0 0.00 0.00 0.00 84 1012.7
20211208081004 3 266 0.0 0.0 0.00 0.00 0.00 84 1012.7
20211208080004 4 266 0.0 0.0 0.00 0.00 0.00 84 1012.6
20211208075503 4 266 0.0 0.0 0.00 0.00 0.00 84 1012.8
20211208075005 4 266 0.0 0.0 0.00 0.00 0.00 84 1012.9
20211208074504 4 266 0.0 0.0 0.00 0.00 0.00 84 1012.9
20211208074004 4 266 0.0 0.0 0.00 0.00 0.00 84 1012.7
20211208073504 4 266 0.0 0.0 0.00 0.00 0.00 84 1012.7
20211208073004 4 266 0.0 0.0 0.00 0.00 0.00 84 1012.8
20211208072503 4 266 0.0 0.0 0.00 0.00 0.00 84 1012.8
20211208072004 4 266 0.0 0.0 0.00 0.00 0.00 84 1012.7
20211208071504 4 266 0.0 0.0 0.00 0.00 0.00 84 1012.9
20211208071004 5 266 0.0 0.0 0.00 0.00 0.00 84 1013.0
20211208070004 5 266 0.0 0.0 0.00 0.00 0.00 84 1013.0
20211208065504 5 266 0.0 0.0 0.00 0.00 0.00 84 1013.3
20211208065004 5 266 0.0 0.0 0.00 0.00 0.00 84 1013.2
20211208064503 6 266 0.0 0.0 0.00 0.00 0.00 84 1013.1
20211208064004 6 266 0.0 0.0 0.00 0.00 0.00 84 1013.3
20211208063503 6 266 0.0 0.0 0.00 0.00 0.00 84 1013.3
20211208063004 6 266 0.0 0.0 0.00 0.00 0.00 84 1013.3
20211208062503 6 266 0.0 0.0 0.00 0.00 0.00 84 1013.2
20211208062004 6 266 0.0 0.0 0.00 0.00 0.00 84 1013.2
20211208061504 6 266 0.0 0.0 0.00 0.00 0.00 83 1013.2
20211208061011 6 266 0.0 0.0 0.00 0.00 0.00 83 1013.1
20211208060004 6 266 0.0 0.0 0.00 0.00 0.00 83 1013.3
20211208055505 6 266 0.0 0.0 0.00 0.00 0.00 83 1013.4
20211208055005 6 266 0.0 0.0 0.00 0.00 0.00 84 1013.4
20211208054504 7 266 0.0 0.0 0.00 0.00 0.00 83 1013.5
20211208054004 7 266 0.0 0.0 0.00 0.00 0.00 83 1013.5
20211208053503 7 266 0.0 0.0 0.00 0.00 0.00 83 1013.5
20211208053004 7 266 0.0 0.0 0.00 0.00 0.00 83 1013.6
20211208052503 7 266 0.0 0.0 0.00 0.00 0.00 83 1013.6
20211208052004 7 266 0.0 0.0 0.00 0.00 0.00 83 1013.8
20211208051503 7 266 0.0 0.0 0.00 0.00 0.00 83 1013.7
20211208051003 8 266 0.0 0.0 0.00 0.00 0.00 83 1013.6
20211208050003 8 266 0.0 0.0 0.00 0.00 0.00 83 1013.8
20211208045503 8 266 0.0 0.0 0.00 0.00 0.00 83 1014.0
20211208045003 8 266 0.0 0.0 0.00 0.00 0.00 83 1014.0
20211208044504 8 266 0.0 0.0 0.00 0.00 0.00 83 1014.2
20211208044004 8 266 0.0 0.0 0.00 0.00 0.00 83 1013.8
20211208043504 8 266 0.0 0.0 0.00 0.00 0.00 83 1014.0
20211208043004 8 265 0.0 0.0 0.00 0.00 0.00 83 1014.3
20211208042504 8 265 0.0 0.0 0.00 0.00 0.00 83 1014.4
20211208042004 8 265 0.0 0.0 0.00 0.00 0.00 83 1014.5
20211208041504 8 265 0.0 0.0 0.00 0.00 0.00 83 1014.5
20211208041003 8 265 0.0 0.0 0.00 0.00 0.00 83 1014.5
20211208040004 8 266 0.0 0.0 0.00 0.00 0.00 83 1014.8
20211208035504 8 266 0.0 0.0 0.00 0.00 0.00 83 1014.7
20211208035004 8 266 0.0 0.0 0.00 0.00 0.00 83 1014.6
20211208034504 8 266 0.0 0.0 0.00 0.00 0.00 83 1014.7
20211208034003 8 266 0.0 0.0 0.00 0.00 0.00 83 1014.7
20211208033504 8 266 0.0 0.0 0.00 0.00 0.00 83 1015.0
20211208033004 8 266 0.0 0.0 0.00 0.00 0.00 82 1014.9
20211208032504 8 266 0.0 0.0 0.00 0.00 0.00 82 1014.8
20211208032003 8 266 0.0 0.0 0.00 0.00 0.00 82 1015.1
20211208031505 8 266 0.0 0.0 0.00 0.00 0.00 82 1015.2
20211208031004 8 266 0.0 0.0 0.00 0.00 0.00 82 1015.3
20211208030004 8 266 0.0 0.0 0.00 0.00 0.00 82 1015.3
20211208025504 8 266 0.0 1.0 0.00 0.00 0.00 82 1015.3
20211208025004 8 268 0.0 1.0 0.00 0.00 0.00 82 1015.4
20211208024503 8 268 0.0 0.0 0.00 0.00 0.00 82 1015.6
20211208024004 8 268 0.0 0.0 0.00 0.00 0.00 82 1015.5
20211208023503 8 268 0.0 0.0 0.00 0.00 0.00 82 1015.5
20211208023004 8 268 0.0 0.0 0.00 0.00 0.00 82 1015.6
20211208022504 8 268 0.0 0.0 0.00 0.00 0.00 82 1015.8
20211208022004 8 269 0.0 0.0 0.00 0.00 0.00 82 1015.5
20211208021504 8 268 0.0 0.0 0.00 0.00 0.00 82 1015.5
20211208021004 8 268 0.0 0.0 0.00 0.00 0.00 81 1015.7
20211208020004 8 268 0.0 0.0 0.00 0.00 0.00 82 1015.5
20211208015504 8 269 0.0 1.0 0.00 0.00 0.00 81 1015.7
20211208015004 8 272 0.0 0.0 0.00 0.00 0.00 81 1015.9
20211208014504 8 272 0.0 0.0 0.00 0.00 0.00 81 1015.9
20211208014004 8 271 0.0 0.0 0.00 0.00 0.00 81 1015.8
20211208013503 8 271 0.0 1.0 0.00 0.00 0.00 81 1016.2
20211208013004 8 272 0.0 1.0 0.00 0.00 0.00 81 1016.2
20211208012503 8 243 0.0 1.0 0.00 0.00 0.00 81 1016.1
20211208012003 8 192 0.0 1.0 0.00 0.00 0.00 81 1016.3
20211208011504 8 231 0.0 1.0 0.00 0.00 0.00 80 1016.4
20211208011004 8 239 0.0 2.0 0.00 0.00 0.00 81 1016.4
20211208010004 8 228 0.0 2.0 0.00 0.00 0.00 80 1016.0
20211208005503 8 234 0.0 1.0 0.00 0.00 0.00 80 1016.2
20211208005003 8 253 1.0 1.0 0.00 0.00 0.00 79 1016.2
20211208004503 8 233 0.0 2.0 0.00 0.00 0.00 79 1016.3
20211208004004 8 188 1.0 2.0 0.00 0.00 0.00 79 1016.3
20211208003503 8 249 1.0 1.0 0.00 0.00 0.00 79 1016.1
20211208003004 8 149 0.0 1.0 0.00 0.00 0.00 78 1016.4
20211208002503 8 191 1.0 2.0 0.00 0.00 0.00 78 1016.2
20211208002004 8 233 0.0 2.0 0.00 0.00 0.00 78 1016.3
20211208001504 8 237 1.0 2.0 0.00 0.00 0.00 77 1016.5
20211208001004 8 113 0.0 1.0 0.00 0.00 0.00 77 1016.3
20211208000004 8 243 0.0 2.0 0.00 0.00 0.00 77 1016.4
20211207235503 8 170 1.0 2.0 0.00 0.00 0.00 76 1016.3
20211207235004 9 258 1.0 2.0 0.00 0.00 0.00 76 1016.5
20211207234504 9 157 0.0 1.0 0.00 0.00 0.00 74 1016.7
20211207234004 9 181 1.0 2.0 0.00 0.00 0.00 74 1016.6
20211207233504 9 118 0.0 2.0 0.00 0.00 0.00 73 1016.8
20211207233003 9 175 0.0 2.0 0.00 0.00 0.00 71 1016.7
20211207232504 9 254 0.0 2.0 0.00 0.00 0.00 70 1016.8
20211207232004 9 178 1.0 3.0 0.00 0.00 0.00 69 1016.9
20211207231504 9 156 0.0 1.0 0.00 0.00 0.00 67 1016.7
20211207231004 9 147 1.0 3.0 0.00 0.00 0.00 67 1016.3
20211207230004 10 142 0.0 5.0 0.00 0.00 0.00 64 1016.9
20211207225504 10 279 0.0 2.0 0.00 0.00 0.00 64 1016.8
20211207225004 10 233 0.0 2.0 0.00 0.00 0.00 63 1017.0
20211207224504 10 204 0.0 1.0 0.00 0.00 0.00 62 1016.7
20211207224004 10 181 0.0 2.0 0.00 0.00 0.00 62 1017.0
20211207223504 10 194 0.0 1.0 0.00 0.00 0.00 61 1016.9
20211207223003 10 174 0.0 1.0 0.00 0.00 0.00 61 1017.2
20211207222503 10 146 0.0 1.0 0.00 0.00 0.00 61 1017.1
20211207222004 10 165 0.0 1.0 0.00 0.00 0.00 60 1017.3
20211207221503 10 159 0.0 1.0 0.00 0.00 0.00 60 1017.2
20211207221004 10 182 0.0 1.0 0.00 0.00 0.00 60 1017.4
20211207220003 10 270 0.0 1.0 0.00 0.00 0.00 58 1017.2
20211207215503 10 234 0.0 1.0 0.00 0.00 0.00 57 1017.2
20211207215003 11 232 0.0 5.0 0.00 0.00 0.00 57 1017.3
20211207214503 11 241 2.0 5.0 0.00 0.00 0.00 56 1017.3
20211207214003 11 299 0.0 5.0 0.00 0.00 0.00 55 1017.3
20211207213504 11 254 0.0 1.0 0.00 0.00 0.00 55 1017.4
20211207213004 11 261 1.0 5.0 0.00 0.00 0.00 52 1017.5
20211207212504 11 241 1.0 3.0 0.00 0.00 0.00 54 1017.7
20211207212004 11 222 0.0 1.0 0.00 0.00 0.00 55 1017.4
20211207211504 11 249 0.0 2.0 0.00 0.00 0.00 53 1017.6
20211207211003 11 251 1.0 5.0 0.00 0.00 0.00 52 1017.5
20211207210004 11 226 0.0 2.0 0.00 0.00 0.00 52 1017.7
20211207205503 11 161 2.0 3.0 0.00 0.00 0.00 50 1017.9
20211207205004 11 224 1.0 5.0 0.00 0.00 0.00 51 1017.9
20211207204504 11 271 1.0 3.0 0.00 0.00 0.00 51 1018.1
20211207204004 11 240 1.0 3.0 0.00 0.00 0.00 50 1017.8
20211207203504 11 179 0.0 1.0 0.00 0.00 0.00 52 1017.9
20211207203003 11 130 0.0 3.0 0.00 0.00 0.00 52 1017.8
20211207202503 11 158 1.0 5.0 0.00 0.00 0.00 53 1018.1
20211207202004 11 251 0.0 3.0 0.00 0.00 0.00 52 1018.2
20211207201504 11 203 1.0 3.0 0.00 0.00 0.00 53 1018.2
20211207201004 11 175 2.0 6.0 0.00 0.00 0.00 51 1018.3
20211207200003 11 225 1.0 6.0 0.00 0.00 0.00 52 1018.1
20211207195503 11 242 1.0 3.0 0.00 0.00 0.00 51 1018.4
20211207195004 10 251 1.0 5.0 0.00 0.00 0.00 52 1018.4
20211207194503 10 250 1.0 5.0 0.00 0.00 0.00 51 1018.5
20211207194004 10 252 1.0 6.0 0.00 0.00 0.00 50 1018.3
20211207193504 10 271 1.0 6.0 0.00 0.00 0.00 51 1018.5
20211207193003 10 240 2.0 6.0 0.00 0.00 0.00 52 1018.6
20211207192504 10 211 1.0 5.0 0.00 0.00 0.00 51 1018.7
20211207192004 10 261 2.0 6.0 0.00 0.00 0.00 50 1018.9
20211207191504 10 222 2.0 9.0 0.00 0.00 0.00 51 1018.8
20211207191003 9 179 0.0 7.0 0.00 0.00 0.00 53 1018.9
20211207190008 9 256 3.0 7.0 0.00 0.00 0.00 52 1019.1
20211207185504 9 170 1.0 8.0 0.00 0.00 0.00 52 1018.9
20211207185004 9 281 2.0 8.0 0.00 0.00 0.00 50 1018.8
20211207184509 9 244 2.0 8.0 0.00 0.00 0.00 52 1018.9
20211207184004 9 213 2.0 6.0 0.00 0.00 0.00 51 1019.1
20211207183504 9 288 1.0 2.0 0.00 0.00 0.00 53 1019.2
20211207183004 9 250 3.0 7.0 0.00 0.00 0.00 50 1019.2
20211207182504 9 252 2.0 6.0 0.00 0.00 0.00 52 1019.4
20211207182004 9 247 2.0 6.0 0.00 0.00 0.00 51 1019.4
20211207181504 9 184 1.0 3.0 0.00 0.00 0.00 53 1019.3
20211207181004 8 243 2.0 7.0 0.00 0.00 0.00 52 1019.3
20211207180003 8 259 2.0 7.0 0.00 0.00 0.00 51 1019.4
20211207175504 8 247 2.0 8.0 0.00 0.00 0.00 52 1019.6
20211207175004 8 262 3.0 7.0 0.00 0.00 0.00 53 1019.5
20211207174504 8 175 2.0 6.0 0.00 0.00 0.00 53 1019.9
20211207174004 8 248 3.0 7.0 0.00 0.00 0.00 52 1019.7
20211207173504 8 247 1.0 3.0 0.00 0.00 0.00 54 1019.9
20211207173003 8 233 1.0 5.0 0.00 0.00 0.00 55 1019.8
20211207172504 8 230 1.0 5.0 0.00 0.00 0.00 56 1019.9
20211207172004 8 197 1.0 3.0 0.00 0.00 0.00 55 1020.1
20211207171503 8 173 2.0 5.0 0.00 0.00 0.00 56 1019.9
20211207171004 8 193 0.0 3.0 0.00 0.00 0.00 59 1020.5
20211207170004 8 241 1.0 2.0 0.00 0.00 0.00 58 1020.2
20211207165504 7 169 1.0 2.0 0.00 0.00 0.00 58 1020.3
20211207165004 7 147 1.0 2.0 0.00 0.00 0.00 57 1020.2
20211207164505 7 148 2.0 6.0 0.00 0.00 0.00 57 1020.6
20211207164004 7 249 3.0 7.0 0.00 0.00 0.00 56 1020.5
20211207163504 7 254 3.0 6.0 0.00 0.00 0.00 59 1020.7
20211207163004 7 257 3.0 6.0 0.00 0.00 0.00 58 1020.6
20211207162504 6 107 1.0 2.0 0.00 0.00 0.00 59 1020.8
20211207162004 6 181 1.0 2.0 0.00 0.00 0.00 60 1020.6